Highgate, VT

8:45 PM EDT on August 19, 2019 (GMT -0400)
Franklin County State

Weather History for KFSO - June, 2019

Change the Weather History Date:

Friday, June 14, 2019

  Actual Average (KPBG) Record (KPBG)
Temperature  
Mean Temperature 63 °F -  
Max Temperature 70 °F 77 °F 96 °F (1956)
Min Temperature 56 °F 54 °F 41 °F (1970)
Degree Days  
Heating Degree Days 2    
Growing Degree Days 13 (Base 50)    
Moisture  
Dew Point 54 °F    
Average Humidity 74    
Maximum Humidity 93    
Minimum Humidity 53    
Precipitation  
Precipitation 0.00 in - - ()
Sea Level Pressure  
Sea Level Pressure 29.70 in    
Wind  
Wind Speed 5 mph (SSW)    
Max Wind Speed 16 mph    
Max Gust Speed 24 mph    
Visibility 10 miles    
Events Rain    
Averages and records for this station are not official NWS values.
T = Trace of Precipitation, MM = Missing Value Source: NWS Daily Summary

Daily Weather History Graph

Daily Weather History Graph

Search for Another Location

Airport or City:

Astronomy

Jun. 14, 2019 Rise Set
Actual Time 5:05 AM EDT 8:40 PM EDT
Civil Twilight 4:28 AM EDT 9:17 PM EDT
Nautical Twilight 3:38 AM EDT 10:06 PM EDT
Astronomical Twilight 2:33 AM EDT 11:11 PM EDT
Moon 5:51 PM EDT (6/14) 3:31 AM EDT (6/14)
Length of Visible Light 16h 49m
Length of Day
15h 34m
Waxing Gibbous, 92% of the Moon is Illuminated
Jun 14
Waxing Gibbous
Jun 17
Full
Jun 25
Last Quarter
Jul 2
New
Jul 9
First Quarter

Hourly Weather History & Observations

Time (EDT) Temp. Dew Point Humidity Pressure Visibility Wind Dir Wind Speed Gust Speed Precip Events Conditions
12:15 AM 56.5 °F 54.5 °F 93% 29.68 in 10.0 mi Calm Calm - N/A   Overcast
12:36 AM 56.8 °F 54.7 °F 92% 29.67 in 10.0 mi Calm Calm - N/A   Overcast
12:56 AM 56.7 °F 53.6 °F 89% 29.66 in 10.0 mi SE 3.5 mph - N/A   Overcast
1:16 AM 56.8 °F 53.6 °F 89% 29.66 in 10.0 mi Calm Calm - N/A   Overcast
1:36 AM 56.8 °F 52.2 °F 84% 29.66 in 10.0 mi SSE 3.5 mph - N/A   Overcast
1:55 AM 57.0 °F 51.6 °F 82% 29.66 in 10.0 mi South 5.8 mph - N/A   Overcast
2:16 AM 57.4 °F 51.6 °F 81% 29.66 in 7.0 mi South 8.1 mph - N/A   Overcast
2:36 AM 58.1 °F 51.6 °F 79% 29.65 in 10.0 mi South 4.6 mph - N/A   Overcast
2:56 AM 57.6 °F 51.4 °F 80% 29.65 in 10.0 mi South 5.8 mph - N/A   Overcast
3:15 AM 58.1 °F 51.8 °F 80% 29.64 in 10.0 mi South 6.9 mph - N/A   Overcast
3:35 AM 58.3 °F 51.8 °F 79% 29.64 in 10.0 mi South 8.1 mph - N/A   Overcast
3:55 AM 58.8 °F 52.0 °F 78% 29.63 in 10.0 mi South 9.2 mph - N/A   Overcast
4:16 AM 59.0 °F 52.7 °F 80% 29.62 in 10.0 mi SSE 6.9 mph - N/A   Overcast
4:35 AM 59.0 °F 52.7 °F 80% 29.63 in 10.0 mi South 4.6 mph - N/A   Mostly Cloudy
4:55 AM 59.2 °F 52.9 °F 80% 29.62 in 10.0 mi South 8.1 mph - N/A   Overcast
5:16 AM 59.4 °F 53.4 °F 81% 29.62 in 10.0 mi South 9.2 mph - N/A   Overcast
5:36 AM 59.0 °F 53.6 °F 82% 29.63 in 10.0 mi South 4.6 mph - N/A   Mostly Cloudy
5:55 AM 58.8 °F 53.8 °F 83% 29.64 in 10.0 mi SSW 5.8 mph - N/A   Mostly Cloudy
6:16 AM 59.4 °F 54.1 °F 83% 29.64 in 10.0 mi SSW 4.6 mph - N/A   Overcast
6:36 AM 59.5 °F 54.5 °F 83% 29.64 in 10.0 mi South 8.1 mph - N/A   Overcast
6:56 AM 60.1 °F 55.0 °F 83% 29.64 in 10.0 mi South 6.9 mph - N/A   Overcast
7:16 AM 60.8 °F 55.4 °F 82% 29.64 in 10.0 mi SSW 6.9 mph - N/A   Overcast
7:35 AM 60.8 °F 55.4 °F 82% 29.64 in 10.0 mi South 6.9 mph - N/A   Overcast
7:56 AM 60.1 °F 56.3 °F 87% 29.64 in 10.0 mi South 8.1 mph - N/A   Overcast
8:15 AM 60.6 °F 56.5 °F 86% 29.64 in 10.0 mi South 6.9 mph - N/A   Scattered Clouds
8:36 AM 64.2 °F 57.0 °F 77% 29.64 in 10.0 mi SSW 9.2 mph 16.1 mph N/A   Mostly Cloudy
8:55 AM 65.5 °F 56.7 °F 73% 29.64 in 10.0 mi South 8.1 mph 16.1 mph N/A   Scattered Clouds
9:16 AM 68.0 °F 57.4 °F 69% 29.64 in 10.0 mi SSW 8.1 mph - N/A   Mostly Cloudy
9:36 AM 67.6 °F 57.2 °F 69% 29.64 in 10.0 mi SW 6.9 mph - N/A   Scattered Clouds
9:55 AM 68.0 °F 56.5 °F 67% 29.64 in 10.0 mi South 10.4 mph 17.3 mph N/A   Scattered Clouds
10:16 AM 69.4 °F 56.5 °F 63% 29.65 in 10.0 mi SW 8.1 mph - N/A   Scattered Clouds
10:35 AM 68.9 °F 54.7 °F 60% 29.64 in 10.0 mi South 6.9 mph 17.3 mph N/A   Scattered Clouds
10:55 AM 70.3 °F 54.3 °F 57% 29.64 in 10.0 mi SW 10.4 mph - N/A   Scattered Clouds
11:15 AM 65.8 °F 54.9 °F 68% 29.66 in 7.0 mi SSW 12.7 mph 20.7 mph N/A Rain Rain
11:35 AM 62.1 °F 58.5 °F 88% 29.66 in 7.0 mi SSW 10.4 mph - N/A   Light Drizzle
11:55 AM 65.3 °F 59.0 °F 80% 29.66 in 10.0 mi SSW 6.9 mph - N/A   Overcast
12:16 PM 66.4 °F 55.4 °F 68% 29.66 in 10.0 mi SSW 9.2 mph 18.4 mph N/A   Mostly Cloudy
12:35 PM 67.3 °F 54.7 °F 64% 29.67 in 10.0 mi SSW 11.5 mph 20.7 mph N/A   Overcast
12:56 PM 69.6 °F 52.7 °F 55% 29.67 in 10.0 mi SW 9.2 mph 18.4 mph N/A   Overcast
1:15 PM 67.3 °F 51.4 °F 57% 29.68 in 10.0 mi SW 5.8 mph 20.7 mph N/A   Overcast
1:36 PM 67.1 °F 51.1 °F 56% 29.68 in 10.0 mi SW 9.2 mph - N/A   Overcast
1:55 PM 68.0 °F 50.4 °F 53% 29.69 in 10.0 mi WSW 16.1 mph 24.2 mph N/A   Overcast
2:16 PM 68.0 °F 50.5 °F 54% 29.69 in 10.0 mi WSW 8.1 mph - N/A   Overcast
2:36 PM 65.7 °F 50.0 °F 57% 29.70 in 10.0 mi SW 8.1 mph 18.4 mph N/A   Overcast
2:55 PM 65.3 °F 50.2 °F 58% 29.71 in 10.0 mi SW 10.4 mph 19.6 mph N/A   Overcast
3:15 PM 66.7 °F 49.5 °F 54% 29.72 in 10.0 mi SSW 10.4 mph 18.4 mph N/A   Overcast
3:35 PM 66.2 °F 50.0 °F 56% 29.72 in 10.0 mi SW 9.2 mph 19.6 mph N/A   Overcast
3:55 PM 66.2 °F 50.9 °F 58% 29.73 in 10.0 mi SSW 6.9 mph - N/A   Overcast
4:16 PM 64.8 °F 49.6 °F 58% 29.73 in 10.0 mi SW 8.1 mph 19.6 mph N/A   Overcast
4:36 PM 64.4 °F 50.0 °F 59% 29.74 in 10.0 mi SSW 5.8 mph - N/A   Overcast
4:55 PM 64.4 °F 50.9 °F 62% 29.74 in 10.0 mi SSW 5.8 mph - N/A   Overcast
5:16 PM 65.3 °F 51.3 °F 60% 29.75 in 10.0 mi SW 8.1 mph - N/A   Overcast
5:35 PM 63.9 °F 51.1 °F 63% 29.76 in 10.0 mi SSW 6.9 mph - N/A   Overcast
5:55 PM 63.0 °F 51.8 °F 67% 29.77 in 10.0 mi SW 5.8 mph - N/A   Light Drizzle
6:15 PM 61.9 °F 52.5 °F 71% 29.78 in 7.0 mi SSW 5.8 mph - N/A Rain Rain
6:36 PM 60.1 °F 54.1 °F 81% 29.79 in 10.0 mi SSW 4.6 mph - N/A   Light Drizzle
6:55 PM 59.7 °F 54.9 °F 84% 29.80 in 7.0 mi SSW 4.6 mph - N/A   Light Drizzle
7:16 PM 59.9 °F 55.4 °F 85% 29.81 in 10.0 mi SSW 4.6 mph - N/A   Overcast
7:35 PM 59.9 °F 55.4 °F 85% 29.82 in 10.0 mi South 3.5 mph - N/A   Overcast
7:56 PM 60.1 °F 55.4 °F 85% 29.83 in 10.0 mi Calm Calm - N/A   Overcast
8:15 PM 60.4 °F 56.1 °F 86% 29.84 in 10.0 mi WSW 3.5 mph - N/A   Overcast
8:36 PM 61.9 °F 56.3 °F 82% 29.84 in 10.0 mi WSW 3.5 mph - N/A   Overcast
8:56 PM 62.6 °F 56.5 °F 80% 29.85 in 10.0 mi SW 4.6 mph - N/A   Overcast
9:15 PM 62.6 °F 56.7 °F 81% 29.86 in 10.0 mi West 4.6 mph - N/A Rain Light Rain
9:35 PM 62.6 °F 56.3 °F 80% 29.87 in 10.0 mi Calm Calm - N/A   Overcast
9:55 PM 61.9 °F 55.8 °F 80% 29.88 in 10.0 mi Calm Calm - N/A   Mostly Cloudy
10:16 PM 61.2 °F 55.8 °F 82% 29.88 in 10.0 mi Calm Calm - N/A   Mostly Cloudy
10:35 PM 61.9 °F 55.9 °F 81% 29.88 in 10.0 mi SW 3.5 mph - N/A   Overcast